User: anonymous   Login
Location: Mount Tamalpais State Park
(37.9108°N, 122.6128°W)
Time: 06:22:45
(UTC-08:00)
Language:

Cosmos 1814 Rocket - Orbit

View from above orbital plane
View from above orbital plane
View from above satellite
View from above satellite

Ground track
Ground track

The orbit data is extracted from the following two-line orbital elements,

1 17304U 87006B   16038.82544961  .00000080  00000-0  35351-4 0  9992
2 17304  74.0589 281.1150 0030838 244.7168 115.0790 14.37552905522117
Epoch (UTC): 07 February 2016 19:48:38
Eccentricity: 0.0030838
inclination: 74.0589°
perigee height: 744 km
apogee height: 788 km
right ascension of ascending node: 281.1150°
argument of perigee: 244.7168°
revolutions per day: 14.37552905
mean anomaly at epoch: 115.0790°
orbit number at epoch: 52211

The dashed part of the orbit path shows where the satellite is in the earth's shadow,  

DLR